Home > Weather > Manama > Past weeks

Flag for Bahrain Past Weather in Manama, Bahrain — Yesterday and Last 2 Weeks

Now
102 °F

Clear.


Feels Like: 112 °F
Forecast: 92 / 104 °F
Wind: 8 mph from Northwest

Location: Bahrain International Airport

Current Time: Aug 27, 2016 at 1:08:08 PM

Latest Report: Aug 27, 2016 at 12:00 PM


Visibility: 6 mi

Pressure: 29.68 "Hg

Humidity: 37%

Dew Point: 72 °F

Location of ManamaLocation

Past Weather in Manama — Graph

°F

Manama Temperature Yesterday

Maximum temperature yesterday: 106 °F (at 12:00 PM)
Minimum temperature yesterday: 91 °F (at 3:00 AM)
Average temperature yesterday: 97 °F

High & Low Weather Summary for the Past Weeks

 TemperatureHumidityPressure
High113 °F (Aug 15, 12:00 PM)94% (Aug 14, 4:00 AM)29.71 "Hg (Aug 14, 4:00 AM)
Low90 °F (Aug 14, 4:00 AM)8% (Aug 15, 1:00 PM)29.42 "Hg (Aug 18, 5:00 PM)
Average97 °F59%29.54 "Hg
* Reported Aug 12 12:00 PM — Aug 27 12:00 PM, Manama, Weather by CustomWeather, © 2016

Note: Actual official high and low records may vary slightly from our data, if they occured in-between our weather recording intervals... More about our weather records

Advertising

Manama Weather History for the Previous 24 Hours

Scroll right to see more
 ConditionsComfort  
Time TempWeatherWind HumidityBarometerVisibility
12:00 PM
Sat, Aug 27
102 °FClear.8 mph37%29.68 "Hg6 mi
11:00 AM102 °FClear.8 mph45%29.68 "Hg5 mi
10:00 AM100 °FClear.10 mph45%29.68 "Hg5 mi
9:00 AM99 °FClear.8 mph53%29.71 "Hg4 mi
8:00 AM95 °FClear.8 mph75%29.68 "Hg4 mi
7:00 AM93 °FSunny.7 mph75%29.65 "Hg4 mi
6:00 AM93 °FSunny.3 mph71%29.65 "Hg4 mi
5:00 AM93 °FClear.2 mph71%29.65 "Hg4 mi
4:00 AM93 °FClear.6 mph75%29.65 "Hg4 mi
3:00 AM91 °FClear.1 mph75%29.62 "Hg4 mi
2:00 AM93 °FClear.3 mph67%29.65 "Hg4 mi
1:00 AM95 °FClear.2 mph56%29.65 "Hg4 mi
12:00 AM95 °FClear.5 mph63%29.65 "Hg5 mi
11:00 PM
Fri, Aug 26
93 °FClear.5 mph71%29.65 "Hg10 mi
10:00 PM93 °FClear.No wind63%29.65 "Hg10 mi
9:00 PM95 °FPassing clouds.3 mph63%29.68 "HgN/A
8:00 PM97 °FPassing clouds.3 mph53%29.65 "HgN/A
7:00 PM97 °FClear.6 mph50%29.65 "Hg10 mi
6:00 PM99 °FSunny.8 mph47%29.62 "Hg10 mi
5:00 PM100 °FSunny.10 mph47%29.62 "Hg6 mi
4:00 PM100 °FSunny.12 mph57%29.62 "Hg6 mi
3:00 PM102 °FSunny.9 mph57%29.62 "Hg6 mi
2:00 PM102 °FSunny.9 mph57%29.62 "Hg6 mi
1:00 PM106 °FSunny.2 mph43%29.65 "Hg10 mi
Weather by CustomWeather, © 2016

See weather overviewHow to use our weather pages